Home > Weather > Santa Rosa > Past weeks

Flag for USA Weather for the Past 2 Weeks in Santa Rosa, California, USA

Now
53 °F

Clear.


Feels Like: 51 °F
Forecast: 51 / 69 °F
Wind: 7 mph from Southeast

Location: Santa Rosa Sonoma County Airport

Current Time: May 2, 2016 at 10:37:35 PM

Latest Report: May 2, 2016 at 9:53 PM


Visibility: 10 mi

Pressure: 30.01 "Hg

Humidity: 89%

Dew Point: 50 °F

Location of Santa RosaLocation

Historic Weather in Santa Rosa — Graph

°F

Santa Rosa Temperature Yesterday

Maximum temperature yesterday: 83 °F (at 12:53 PM)
Minimum temperature yesterday: 49 °F (at 4:53 AM)
Average temperature yesterday: 66 °F

High & Low Weather Summary for the Past Weeks

 TemperatureHumidityPressure
High83 °F (Apr 18, 1:53 PM)100% (Apr 21, 6:53 AM)30.18 "Hg (Apr 21, 6:53 AM)
Low42 °F (Apr 20, 6:56 AM)23% (Apr 30, 4:53 PM)29.75 "Hg (Apr 22, 5:53 AM)
Average59 °F65%29.94 "Hg
* Reported Apr 17 8:53 PM — May 2 8:53 PM, Santa Rosa, Weather by CustomWeather, © 2016

Note: Actual official high and low records may vary slightly from our data, if they occured in-between our weather recording intervals... More about our weather records

Advertising

Santa Rosa Weather History for the Previous 24 Hours

Scroll right to see more
 ConditionsComfort  
Time TempWeatherWind HumidityBarometerVisibility
8:53 PM
Mon, May 2
55 °FSunny.7 mph83%29.99 "Hg10 mi
7:53 PM59 °FScattered clouds.7 mph75%29.96 "Hg10 mi
6:53 PM63 °FScattered clouds.9 mph65%29.96 "Hg10 mi
5:53 PM65 °FScattered clouds.8 mph61%29.97 "Hg10 mi
4:53 PM69 °FScattered clouds.10 mph57%29.98 "Hg10 mi
3:53 PM70 °FScattered clouds.10 mph55%29.98 "Hg10 mi
2:53 PM70 °FScattered clouds.10 mph53%30.00 "Hg10 mi
1:53 PM71 °FPassing clouds.8 mph53%30.00 "Hg10 mi
12:53 PM69 °FHaze.6 mph55%30.02 "Hg10 mi
11:53 AM64 °FScattered clouds.3 mph63%30.03 "Hg10 mi
10:53 AM59 °FScattered clouds.No wind72%30.03 "Hg10 mi
9:53 AM57 °FPartly sunny.3 mph78%30.03 "Hg10 mi
8:53 AM54 °FOvercast.3 mph83%30.03 "Hg10 mi
7:53 AM53 °FOvercast.5 mph89%30.02 "Hg10 mi
6:53 AM53 °FOvercast.5 mph89%30.00 "Hg10 mi
5:53 AM53 °FOvercast.3 mph86%29.98 "Hg10 mi
4:53 AM51 °FLow clouds.3 mph92%29.97 "Hg10 mi
3:53 AM49 °FClear.6 mph93%29.96 "Hg10 mi
2:53 AM51 °FClear.3 mph89%29.94 "Hg10 mi
1:53 AM51 °FClear.5 mph86%29.93 "Hg10 mi
12:53 AM52 °FClear.3 mph86%29.92 "Hg10 mi
11:53 PM
Sun, May 1
55 °FClear.6 mph77%29.91 "Hg10 mi
10:53 PM56 °FClear.3 mph75%29.89 "Hg10 mi
Weather by CustomWeather, © 2016

See weather overviewHow to use our weather pages